Sidney, NE

1:19 AM MDT on April 24, 2018 (GMT -0600)
Sidney Municipal

Weather History for KSNY - May, 2012

Change the Weather History Date:

Wednesday, May 2, 2012

  Actual Average Record
Temperature  
Mean Temperature 59 °F 53 °F  
Max Temperature 77 °F 67 °F 84 °F (1949)
Min Temperature 40 °F 39 °F 17 °F (2005)
Degree Days  
Heating Degree Days 6 12  
Month to date heating degree days 10 12  
Since 1 July heating degree days 5417 5924  
Cooling Degree Days 0 0  
Month to date cooling degree days 0 0  
Year to date cooling degree days 7 1  
Growing Degree Days 8 (Base 50)    
Moisture  
Dew Point 43 °F    
Average Humidity 56    
Maximum Humidity 79    
Minimum Humidity 33    
Precipitation  
Precipitation 0.03 in 0.10 in 0.73 in (2001)
Month to date precipitation 0.05 0.10  
Year to date precipitation 2.18 3.77  
Sea Level Pressure  
Sea Level Pressure 29.74 in    
Wind  
Wind Speed 8 mph (NW)    
Max Wind Speed 25 mph    
Max Gust Speed 31 mph    
Visibility 10 miles    
Events Rain    
T = Trace of Precipitation, MM = Missing Value Source: NWS Daily Summary

Daily Weather History Graph

Daily Weather History Graph

Search for Another Location

Airport or City:

Astronomy

May. 02, 2012 Rise Set
Actual Time 5:47 AM MDT 7:50 PM MDT
Civil Twilight 5:17 AM MDT 8:20 PM MDT
Nautical Twilight 4:41 AM MDT 8:57 PM MDT
Astronomical Twilight 4:01 AM MDT 9:37 PM MDT
Moon 4:04 PM MDT (5/2) 3:21 AM MDT (5/2)
Length of Visible Light 15h 02m
Length of Day
14h 02m
Waxing Gibbous, 84% of the Moon is Illuminated
May 2
Waxing Gibbous
May 5
Full
May 12
Last Quarter
May 20
New
May 28
First Quarter

Hourly Weather History & Observations

Time (MDT) Temp. Windchill Dew Point Humidity Pressure Visibility Wind Dir Wind Speed Gust Speed Precip Events Conditions
12:53 AM 46.0 °F 41.0 °F 37.0 °F 71% 29.70 in 10.0 mi West 10.4 mph - N/A   Clear
1:53 AM 46.9 °F - 37.0 °F 68% 29.69 in 10.0 mi NW 9.2 mph - N/A   Clear
2:53 AM 48.0 °F - 36.0 °F 63% 29.68 in 10.0 mi NNW 9.2 mph - N/A   Clear
3:53 AM 46.9 °F - 37.0 °F 68% 29.69 in 10.0 mi Calm Calm - N/A   Clear
4:53 AM 41.0 °F 35.8 °F 36.0 °F 82% 29.70 in 10.0 mi SW 8.1 mph - N/A   Clear
5:53 AM 41.0 °F 36.4 °F 36.0 °F 82% 29.70 in 10.0 mi WSW 6.9 mph - N/A   Clear
6:53 AM 50.0 °F - 42.1 °F 74% 29.71 in 10.0 mi WSW 6.9 mph - N/A   Clear
7:53 AM 57.9 °F - 43.0 °F 58% 29.75 in 10.0 mi WNW 5.8 mph - N/A   Clear
8:53 AM 64.0 °F - 45.0 °F 50% 29.76 in 10.0 mi NW 8.1 mph - N/A   Clear
9:53 AM 68.0 °F - 43.0 °F 40% 29.75 in 10.0 mi NNW 6.9 mph - N/A   Clear
10:53 AM 69.1 °F - 41.0 °F 36% 29.77 in 10.0 mi NNW 4.6 mph - N/A   Clear
11:53 AM 71.1 °F - 44.1 °F 38% 29.76 in 10.0 mi Variable 3.5 mph - N/A   Clear
12:53 PM 73.0 °F - 44.1 °F 35% 29.74 in 10.0 mi Calm Calm - N/A   Clear
1:53 PM 73.0 °F - 44.1 °F 35% 29.73 in 10.0 mi SSE 8.1 mph - N/A   Clear
2:53 PM 75.0 °F - 44.1 °F 33% 29.70 in 10.0 mi East 12.7 mph - N/A   Clear
3:53 PM 75.9 °F - 44.1 °F 32% 29.68 in 10.0 mi East 10.4 mph - N/A   Clear
4:53 PM 73.9 °F - 45.0 °F 35% 29.70 in 10.0 mi East 10.4 mph - N/A   Scattered Clouds
5:53 PM 64.9 °F - 50.0 °F 58% 29.77 in 10.0 mi NW 20.7 mph 29.9 mph 0.00 in Rain Light Rain
6:00 PM 64.4 °F - 51.8 °F 64% 29.81 in 10.0 mi NNW 17.3 mph 27.6 mph 0.00 in Rain Light Rain
7:53 PM 59.0 °F - 51.1 °F 75% 29.76 in 10.0 mi NNW 15.0 mph - N/A   Overcast
8:53 PM 61.0 °F - 48.9 °F 64% 29.77 in 10.0 mi NNW 9.2 mph - N/A   Overcast
9:53 PM 61.0 °F - 46.9 °F 60% 29.80 in 10.0 mi WNW 10.4 mph - N/A   Overcast
10:53 PM 60.1 °F - 46.9 °F 62% 29.80 in 10.0 mi NW 9.2 mph - N/A   Overcast
11:53 PM 60.1 °F - 46.0 °F 60% 29.79 in 10.0 mi WNW 9.2 mph - N/A   Mostly Cloudy